Wetterdaten: aktuell Samstag, 04.07.2020 18:15
Datum Zeit Temp. Feuchte Luftdruck Nieders. Wind Richtung Richtung Sonnenschein Solar Taupunkt Windchill Windben
04.07.2020 18:15 25,1 C 45 % 1014,8 hPa 0,0 l/m 6,0 km/h (2 Bft) S-SW 198 5 min 174 W/m 12,3 C 25,1 C 22,5 km/h (4 Bft)
04.07.2020 18:10 25,1 C 45 % 1014,8 hPa 0,0 l/m 6,9 km/h (2 Bft) S-SO 160 5 min 218 W/m 12,3 C 25,0 C 17,7 km/h (3 Bft)
04.07.2020 18:05 25,2 C 45 % 1014,9 hPa 0,0 l/m 9,4 km/h (2 Bft) SW 229 5 min 237 W/m 12,4 C 24,5 C 17,7 km/h (3 Bft)
04.07.2020 18:00 25,3 C 45 % 1015,0 hPa 0,0 l/m 8,3 km/h (2 Bft) SW 220 5 min 178 W/m 12,5 C 24,8 C 19,3 km/h (3 Bft)
04.07.2020 17:55 24,9 C 46 % 1015,0 hPa 0,0 l/m 8,1 km/h (2 Bft) SW 232 5 min 462 W/m 12,5 C 24,5 C 27,4 km/h (5 Bft)
04.07.2020 17:50 24,7 C 46 % 1015,1 hPa 0,0 l/m 9,2 km/h (2 Bft) S-SW 202 5 min 292 W/m 12,3 C 24,0 C 22,5 km/h (4 Bft)
04.07.2020 17:45 24,7 C 46 % 1015,1 hPa 0,0 l/m 8,7 km/h (2 Bft) S 177 5 min 236 W/m 12,3 C 24,1 C 19,3 km/h (3 Bft)
04.07.2020 17:40 24,6 C 46 % 1015,1 hPa 0,0 l/m 11,4 km/h (2 Bft) SW 219 5 min 264 W/m 12,2 C 23,4 C 24,1 km/h (4 Bft)
04.07.2020 17:35 24,4 C 47 % 1015,1 hPa 0,0 l/m 9,5 km/h (2 Bft) S 178 5 min 251 W/m 12,3 C 23,6 C 20,9 km/h (4 Bft)
04.07.2020 17:30 24,4 C 46 % 1015,2 hPa 0,0 l/m 6,8 km/h (2 Bft) S 186 5 min 204 W/m 12,0 C 24,3 C 17,7 km/h (3 Bft)
04.07.2020 17:25 24,5 C 46 % 1015,3 hPa 0,0 l/m 6,1 km/h (2 Bft) S-SO 161 5 min 186 W/m 12,1 C 24,5 C 14,5 km/h (3 Bft)
04.07.2020 17:20 24,7 C 45 % 1015,3 hPa 0,0 l/m 6,5 km/h (2 Bft) SW 236 5 min 165 W/m 12,0 C 24,7 C 16,1 km/h (3 Bft)
04.07.2020 17:15 24,9 C 44 % 1015,4 hPa 0,0 l/m 7,9 km/h (2 Bft) S-SW 203 5 min 176 W/m 11,8 C 24,5 C 17,7 km/h (3 Bft)
04.07.2020 17:10 25,2 C 43 % 1015,3 hPa 0,0 l/m 7,6 km/h (2 Bft) S-SW 205 5 min 199 W/m 11,7 C 24,9 C 19,3 km/h (3 Bft)
04.07.2020 17:05 25,3 C 43 % 1015,2 hPa 0,0 l/m 11,1 km/h (2 Bft) W-SW 250 5 min 276 W/m 11,8 C 24,3 C 25,7 km/h (4 Bft)
04.07.2020 17:00 25,5 C 42 % 1015,2 hPa 0,0 l/m 11,5 km/h (2 Bft) S-SW 199 5 min 557 W/m 11,6 C 24,4 C 24,1 km/h (4 Bft)
04.07.2020 16:55 25,6 C 42 % 1015,3 hPa 0,0 l/m 12,4 km/h (2 Bft) S 186 5 min 860 W/m 11,7 C 24,4 C 24,1 km/h (4 Bft)
04.07.2020 16:50 25,5 C 42 % 1015,3 hPa 0,0 l/m 7,7 km/h (2 Bft) S 171 5 min 425 W/m 11,6 C 25,2 C 20,9 km/h (4 Bft)
04.07.2020 16:45 25,8 C 40 % 1015,4 hPa 0,0 l/m 10,4 km/h (2 Bft) S-SO 163 5 min 267 W/m 11,2 C 25,0 C 25,7 km/h (4 Bft)
04.07.2020 16:40 25,7 C 42 % 1015,3 hPa 0,0 l/m 10,0 km/h (2 Bft) O-SO 105 5 min 694 W/m 11,8 C 24,9 C 27,4 km/h (5 Bft)
04.07.2020 16:35 25,1 C 43 % 1015,3 hPa 0,0 l/m 11,3 km/h (2 Bft) S-SW 211 5 min 265 W/m 11,6 C 24,0 C 22,5 km/h (4 Bft)
04.07.2020 16:30 25,2 C 43 % 1015,3 hPa 0,0 l/m 9,0 km/h (2 Bft) S-SW 209 5 min 278 W/m 11,7 C 24,6 C 22,5 km/h (4 Bft)
04.07.2020 16:25 25,2 C 43 % 1015,3 hPa 0,0 l/m 12,0 km/h (2 Bft) S 190 5 min 411 W/m 11,7 C 24,0 C 24,1 km/h (4 Bft)
04.07.2020 16:20 25,2 C 43 % 1015,2 hPa 0,0 l/m 11,1 km/h (2 Bft) S-SO 168 5 min 570 W/m 11,7 C 24,2 C 24,1 km/h (4 Bft)
04.07.2020 16:15 25,4 C 43 % 1015,3 hPa 0,0 l/m 9,5 km/h (2 Bft) SW 219 5 min 309 W/m 11,9 C 24,7 C 20,9 km/h (4 Bft)
04.07.2020 16:10 24,8 C 45 % 1015,2 hPa 0,0 l/m 5,5 km/h (2 Bft) S 190 5 min 357 W/m 12,0 C 24,8 C 17,7 km/h (3 Bft)
04.07.2020 16:05 24,6 C 44 % 1015,4 hPa 0,0 l/m 10,6 km/h (2 Bft) SW 217 5 min 304 W/m 11,5 C 23,6 C 20,9 km/h (4 Bft)
04.07.2020 16:00 24,4 C 46 % 1015,4 hPa 0,0 l/m 9,2 km/h (2 Bft) SW 214 5 min 308 W/m 12,0 C 23,7 C 19,3 km/h (3 Bft)
04.07.2020 15:55 24,5 C 45 % 1015,5 hPa 0,0 l/m 8,6 km/h (2 Bft) S 183 5 min 165 W/m 11,8 C 23,9 C 20,9 km/h (4 Bft)
04.07.2020 15:50 24,6 C 45 % 1015,5 hPa 0,0 l/m 6,6 km/h (2 Bft) SW 214 5 min 183 W/m 11,9 C 24,6 C 17,7 km/h (3 Bft)
04.07.2020 15:45 24,7 C 44 % 1015,6 hPa 0,0 l/m 10,0 km/h (2 Bft) S-SW 202 5 min 236 W/m 11,6 C 23,8 C 19,3 km/h (3 Bft)
04.07.2020 15:40 24,8 C 44 % 1015,6 hPa 0,0 l/m 6,9 km/h (2 Bft) SW 220 5 min 202 W/m 11,7 C 24,7 C 17,7 km/h (3 Bft)
04.07.2020 15:35 24,9 C 43 % 1015,6 hPa 0,0 l/m 10,0 km/h (2 Bft) S-SW 207 5 min 234 W/m 11,4 C 24,1 C 25,7 km/h (4 Bft)
04.07.2020 15:30 24,8 C 43 % 1015,6 hPa 0,0 l/m 11,4 km/h (2 Bft) S-SW 211 5 min 392 W/m 11,4 C 23,7 C 27,4 km/h (5 Bft)
04.07.2020 15:25 24,9 C 43 % 1015,5 hPa 0,0 l/m 11,2 km/h (2 Bft) S 182 5 min 390 W/m 11,4 C 23,8 C 22,5 km/h (4 Bft)
04.07.2020 15:20 25,2 C 42 % 1015,7 hPa 0,0 l/m 11,8 km/h (2 Bft) S-SO 165 5 min 399 W/m 11,4 C 24,1 C 25,7 km/h (4 Bft)
04.07.2020 15:15 25,3 C 43 % 1015,6 hPa 0,0 l/m 8,2 km/h (2 Bft) S-SO 167 5 min 348 W/m 11,8 C 24,9 C 19,3 km/h (3 Bft)
04.07.2020 15:10 25,2 C 43 % 1015,5 hPa 0,0 l/m 9,2 km/h (2 Bft) S-SO 165 5 min 392 W/m 11,7 C 24,5 C 17,7 km/h (3 Bft)
04.07.2020 15:05 25,0 C 42 % 1015,6 hPa 0,0 l/m 10,0 km/h (2 Bft) S-SW 205 5 min 492 W/m 11,2 C 24,2 C 24,1 km/h (4 Bft)
04.07.2020 15:00 24,9 C 43 % 1015,7 hPa 0,0 l/m 9,0 km/h (2 Bft) SW 231 5 min 427 W/m 11,4 C 24,3 C 19,3 km/h (3 Bft)
04.07.2020 14:55 24,9 C 43 % 1015,7 hPa 0,0 l/m 11,0 km/h (2 Bft) SW 223 5 min 1065 W/m 11,4 C 23,9 C 22,5 km/h (4 Bft)
04.07.2020 14:50 24,7 C 44 % 1015,7 hPa 0,0 l/m 10,2 km/h (2 Bft) W-SW 237 5 min 454 W/m 11,6 C 23,8 C 24,1 km/h (4 Bft)
04.07.2020 14:45 24,8 C 44 % 1015,7 hPa 0,0 l/m 7,7 km/h (2 Bft) W 269 5 min 434 W/m 11,7 C 24,5 C 17,7 km/h (3 Bft)
04.07.2020 14:40 24,7 C 43 % 1015,7 hPa 0,0 l/m 10,5 km/h (2 Bft) SW 235 5 min 413 W/m 11,3 C 23,7 C 25,7 km/h (4 Bft)
04.07.2020 14:35 24,8 C 43 % 1015,9 hPa 0,0 l/m 10,1 km/h (2 Bft) S-SO 167 5 min 462 W/m 11,4 C 23,9 C 20,9 km/h (4 Bft)
04.07.2020 14:30 25,1 C 44 % 1015,8 hPa 0,0 l/m 10,4 km/h (2 Bft) S-SO 153 5 min 388 W/m 12,0 C 24,2 C 19,3 km/h (3 Bft)
04.07.2020 14:25 24,9 C 45 % 1015,9 hPa 0,0 l/m 8,4 km/h (2 Bft) W-SW 244 5 min 1174 W/m 12,1 C 24,4 C 22,5 km/h (4 Bft)
04.07.2020 14:20 24,3 C 45 % 1015,9 hPa 0,0 l/m 5,7 km/h (2 Bft) SO 144 5 min 858 W/m 11,6 C 24,3 C 14,5 km/h (3 Bft)
04.07.2020 14:15 24,4 C 44 % 1016,0 hPa 0,0 l/m 9,2 km/h (2 Bft) S-SO 168 5 min 380 W/m 11,3 C 23,7 C 27,4 km/h (5 Bft)
04.07.2020 14:10 24,6 C 44 % 1016,0 hPa 0,0 l/m 9,6 km/h (2 Bft) S-SW 192 5 min 918 W/m 11,5 C 23,8 C 17,7 km/h (3 Bft)
04.07.2020 14:05 24,4 C 45 % 1016,2 hPa 0,0 l/m 8,1 km/h (2 Bft) SW 235 5 min 276 W/m 11,7 C 23,9 C 22,5 km/h (4 Bft)
04.07.2020 14:00 24,8 C 43 % 1016,1 hPa 0,0 l/m 9,1 km/h (2 Bft) S 182 5 min 260 W/m 11,4 C 24,1 C 17,7 km/h (3 Bft)
04.07.2020 13:55 25,1 C 44 % 1016,2 hPa 0,0 l/m 8,0 km/h (2 Bft) O 101 5 min 1002 W/m 12,0 C 24,7 C 24,1 km/h (4 Bft)
04.07.2020 13:50 24,8 C 46 % 1016,3 hPa 0,0 l/m 6,9 km/h (2 Bft) SW 214 5 min 1000 W/m 12,4 C 24,7 C 16,1 km/h (3 Bft)
04.07.2020 13:45 24,1 C 48 % 1016,3 hPa 0,0 l/m 5,0 km/h (1 Bft) W 280 5 min 1090 W/m 12,4 C 24,1 C 14,5 km/h (3 Bft)
04.07.2020 13:40 23,7 C 48 % 1016,5 hPa 0,0 l/m 7,0 km/h (2 Bft) S 188 5 min 1055 W/m 12,0 C 23,5 C 16,1 km/h (3 Bft)
04.07.2020 13:35 23,7 C 47 % 1016,5 hPa 0,0 l/m 8,8 km/h (2 Bft) S-SW 192 5 min 461 W/m 11,7 C 23,0 C 20,9 km/h (4 Bft)
04.07.2020 13:30 23,7 C 47 % 1016,6 hPa 0,0 l/m 8,1 km/h (2 Bft) SW 230 5 min 612 W/m 11,7 C 23,2 C 20,9 km/h (4 Bft)
04.07.2020 13:25 23,3 C 50 % 1016,6 hPa 0,0 l/m 7,9 km/h (2 Bft) S-SW 205 5 min 756 W/m 12,3 C 22,8 C 17,7 km/h (3 Bft)
04.07.2020 13:20 23,2 C 48 % 1016,6 hPa 0,0 l/m 5,4 km/h (2 Bft) S 188 5 min 527 W/m 11,6 C 23,2 C 16,1 km/h (3 Bft)
04.07.2020 13:15 23,1 C 49 % 1016,7 hPa 0,0 l/m 6,1 km/h (2 Bft) S-SW 194 5 min 475 W/m 11,8 C 23,1 C 14,5 km/h (3 Bft)
04.07.2020 13:10 22,8 C 48 % 1016,7 hPa 0,0 l/m 4,0 km/h (1 Bft) S-SW 213 5 min 557 W/m 11,2 C 22,8 C 19,3 km/h (3 Bft)
04.07.2020 13:05 22,8 C 49 % 1016,8 hPa 0,0 l/m 9,5 km/h (2 Bft) S-SW 195 5 min 388 W/m 11,5 C 21,9 C 17,7 km/h (3 Bft)
04.07.2020 13:00 23,1 C 47 % 1016,8 hPa 0,0 l/m 11,3 km/h (2 Bft) SW 235 5 min 334 W/m 11,2 C 21,8 C 27,4 km/h (5 Bft)
04.07.2020 12:55 23,3 C 48 % 1016,7 hPa 0,0 l/m 8,5 km/h (2 Bft) S-SO 148 5 min 357 W/m 11,7 C 22,7 C 17,7 km/h (3 Bft)
04.07.2020 12:50 23,3 C 47 % 1016,9 hPa 0,0 l/m 11,5 km/h (2 Bft) S 186 5 min 777 W/m 11,3 C 21,9 C 24,1 km/h (4 Bft)
04.07.2020 12:45 23,1 C 47 % 1016,9 hPa 0,0 l/m 13,2 km/h (3 Bft) S 177 5 min 740 W/m 11,2 C 21,3 C 22,5 km/h (4 Bft)
04.07.2020 12:40 22,9 C 48 % 1016,9 hPa 0,0 l/m 10,9 km/h (2 Bft) S 186 5 min 668 W/m 11,3 C 21,6 C 25,7 km/h (4 Bft)
04.07.2020 12:35 22,8 C 48 % 1016,9 hPa 0,0 l/m 9,3 km/h (2 Bft) W-NW 296 5 min 471 W/m 11,2 C 21,9 C 22,5 km/h (4 Bft)
04.07.2020 12:30 22,7 C 47 % 1016,9 hPa 0,0 l/m 11,0 km/h (2 Bft) SW 219 5 min 450 W/m 10,8 C 21,4 C 27,4 km/h (5 Bft)
04.07.2020 12:25 22,7 C 48 % 1017,0 hPa 0,0 l/m 9,0 km/h (2 Bft) S-SW 202 5 min 476 W/m 11,1 C 21,9 C 24,1 km/h (4 Bft)
04.07.2020 12:20 22,7 C 47 % 1016,9 hPa 0,0 l/m 13,0 km/h (3 Bft) S 172 5 min 515 W/m 10,8 C 20,9 C 33,8 km/h (5 Bft)
04.07.2020 12:15 22,9 C 47 % 1017,0 hPa 0,0 l/m 9,5 km/h (2 Bft) S-SO 160 5 min 457 W/m 11,0 C 22,0 C 22,5 km/h (4 Bft)
04.07.2020 12:10 23,1 C 46 % 1017,1 hPa 0,0 l/m 11,9 km/h (2 Bft) S 186 5 min 469 W/m 10,8 C 21,6 C 25,7 km/h (4 Bft)
04.07.2020 12:05 23,3 C 47 % 1017,1 hPa 0,0 l/m 10,9 km/h (2 Bft) S-SW 208 5 min 638 W/m 11,3 C 22,1 C 24,1 km/h (4 Bft)
04.07.2020 12:00 23,3 C 47 % 1017,0 hPa 0,0 l/m 11,0 km/h (2 Bft) S-SW 199 5 min 831 W/m 11,3 C 22,0 C 24,1 km/h (4 Bft)
04.07.2020 11:55 23,2 C 47 % 1017,0 hPa 0,0 l/m 12,0 km/h (2 Bft) S 178 5 min 700 W/m 11,3 C 21,7 C 24,1 km/h (4 Bft)
04.07.2020 11:50 23,0 C 49 % 1017,1 hPa 0,0 l/m 9,2 km/h (2 Bft) S 188 5 min 951 W/m 11,7 C 22,2 C 24,1 km/h (4 Bft)
04.07.2020 11:45 22,8 C 48 % 1017,1 hPa 0,0 l/m 13,6 km/h (3 Bft) SW 214 5 min 888 W/m 11,2 C 20,9 C 24,1 km/h (4 Bft)
04.07.2020 11:40 22,9 C 48 % 1017,2 hPa 0,0 l/m 11,2 km/h (2 Bft) SW 215 5 min 863 W/m 11,3 C 21,6 C 22,5 km/h (4 Bft)
04.07.2020 11:35 22,8 C 49 % 1017,2 hPa 0,0 l/m 11,2 km/h (2 Bft) SW 219 5 min 858 W/m 11,5 C 21,4 C 25,7 km/h (4 Bft)
04.07.2020 11:30 22,7 C 49 % 1017,2 hPa 0,0 l/m 11,1 km/h (2 Bft) SW 221 5 min 847 W/m 11,4 C 21,3 C 27,4 km/h (5 Bft)
04.07.2020 11:25 22,3 C 54 % 1017,2 hPa 0,0 l/m 6,0 km/h (2 Bft) S-SW 199 5 min 842 W/m 12,5 C 22,3 C 14,5 km/h (3 Bft)
04.07.2020 11:20 21,9 C 54 % 1017,4 hPa 0,0 l/m 7,7 km/h (2 Bft) SW 229 5 min 846 W/m 12,2 C 21,4 C 19,3 km/h (3 Bft)
04.07.2020 11:15 21,7 C 56 % 1017,4 hPa 0,0 l/m 8,5 km/h (2 Bft) W-SW 244 5 min 905 W/m 12,5 C 21,0 C 17,7 km/h (3 Bft)
04.07.2020 11:10 21,6 C 55 % 1017,4 hPa 0,0 l/m 8,2 km/h (2 Bft) S-SO 155 5 min 397 W/m 12,2 C 21,0 C 20,9 km/h (4 Bft)
04.07.2020 11:05 21,6 C 56 % 1017,4 hPa 0,0 l/m 8,0 km/h (2 Bft) S-SW 192 5 min 318 W/m 12,4 C 21,0 C 16,1 km/h (3 Bft)
04.07.2020 11:00 21,2 C 55 % 1017,5 hPa 0,0 l/m 10,3 km/h (2 Bft) S-SW 211 5 min 842 W/m 11,8 C 19,9 C 19,3 km/h (3 Bft)
04.07.2020 10:55 21,1 C 56 % 1017,6 hPa 0,0 l/m 8,1 km/h (2 Bft) S 189 5 min 429 W/m 12,0 C 20,5 C 20,9 km/h (4 Bft)
04.07.2020 10:50 20,9 C 57 % 1017,7 hPa 0,0 l/m 7,2 km/h (2 Bft) S 184 5 min 410 W/m 12,1 C 20,6 C 22,5 km/h (4 Bft)
04.07.2020 10:45 20,8 C 58 % 1017,6 hPa 0,0 l/m 6,4 km/h (2 Bft) S-SO 148 5 min 387 W/m 12,2 C 20,8 C 16,1 km/h (3 Bft)
04.07.2020 10:40 20,7 C 59 % 1017,7 hPa 0,0 l/m 7,0 km/h (2 Bft) S-SW 208 5 min 422 W/m 12,4 C 20,5 C 17,7 km/h (3 Bft)
04.07.2020 10:35 20,7 C 58 % 1017,8 hPa 0,0 l/m 9,6 km/h (2 Bft) W-SW 253 5 min 383 W/m 12,1 C 19,5 C 27,4 km/h (5 Bft)
04.07.2020 10:30 20,8 C 58 % 1017,9 hPa 0,0 l/m 9,2 km/h (2 Bft) S-SW 212 5 min 329 W/m 12,2 C 19,8 C 29,0 km/h (5 Bft)
04.07.2020 10:25 20,8 C 59 % 1017,8 hPa 0,0 l/m 8,5 km/h (2 Bft) W 267 5 min 473 W/m 12,5 C 20,0 C 16,1 km/h (3 Bft)
04.07.2020 10:20 20,6 C 59 % 1017,9 hPa 0,0 l/m 6,9 km/h (2 Bft) S 172 5 min 434 W/m 12,3 C 20,4 C 19,3 km/h (3 Bft)
04.07.2020 10:15 20,3 C 60 % 1017,9 hPa 0,0 l/m 8,8 km/h (2 Bft) SO 144 5 min 605 W/m 12,3 C 19,4 C 20,9 km/h (4 Bft)
04.07.2020 10:10 20,0 C 60 % 1017,9 hPa 0,0 l/m 9,3 km/h (2 Bft) S-SW 203 5 min 482 W/m 12,0 C 18,9 C 22,5 km/h (4 Bft)
04.07.2020 10:05 20,1 C 60 % 1018,0 hPa 0,0 l/m 7,9 km/h (2 Bft) S-SW 202 5 min 272 W/m 12,1 C 19,5 C 17,7 km/h (3 Bft)
04.07.2020 10:00 20,4 C 59 % 1018,1 hPa 0,0 l/m 10,2 km/h (2 Bft) S 185 5 min 253 W/m 12,1 C 19,0 C 19,3 km/h (3 Bft)
04.07.2020 09:55 20,3 C 61 % 1018,0 hPa 0,0 l/m 6,7 km/h (2 Bft) SW 221 5 min 729 W/m 12,5 C 20,2 C 17,7 km/h (3 Bft)
04.07.2020 09:50 20,1 C 61 % 1018,0 hPa 0,0 l/m 9,3 km/h (2 Bft) S-SO 167 5 min 380 W/m 12,3 C 19,0 C 16,1 km/h (3 Bft)
04.07.2020 09:45 20,2 C 60 % 1018,1 hPa 0,0 l/m 8,2 km/h (2 Bft) S-SW 206 5 min 311 W/m 12,2 C 19,5 C 19,3 km/h (3 Bft)
04.07.2020 09:40 20,2 C 61 % 1018,1 hPa 0,0 l/m 9,2 km/h (2 Bft) SO 136 5 min 478 W/m 12,4 C 19,1 C 17,7 km/h (3 Bft)
04.07.2020 09:35 19,8 C 63 % 1018,1 hPa 0,0 l/m 8,3 km/h (2 Bft) SO 146 5 min 707 W/m 12,5 C 19,0 C 17,7 km/h (3 Bft)
04.07.2020 09:30 19,3 C 64 % 1018,2 hPa 0,0 l/m 5,9 km/h (2 Bft) SW 223 5 min 403 W/m 12,3 C 19,3 C 16,1 km/h (3 Bft)
04.07.2020 09:25 19,2 C 65 % 1018,2 hPa 0,0 l/m 8,9 km/h (2 Bft) S-SW 198 5 min 513 W/m 12,5 C 18,2 C 20,9 km/h (4 Bft)
04.07.2020 09:20 19,3 C 65 % 1018,2 hPa 0,0 l/m 6,9 km/h (2 Bft) S 185 5 min 371 W/m 12,6 C 19,1 C 16,1 km/h (3 Bft)
04.07.2020 09:15 19,5 C 63 % 1018,1 hPa 0,0 l/m 7,9 km/h (2 Bft) S-SO 168 5 min 316 W/m 12,3 C 18,9 C 19,3 km/h (3 Bft)
04.07.2020 09:10 19,3 C 65 % 1018,1 hPa 0,0 l/m 5,8 km/h (2 Bft) S-SO 149 5 min 680 W/m 12,6 C 19,3 C 17,7 km/h (3 Bft)
04.07.2020 09:05 18,8 C 67 % 1018,1 hPa 0,0 l/m 6,5 km/h (2 Bft) S 169 5 min 494 W/m 12,5 C 18,8 C 17,7 km/h (3 Bft)
04.07.2020 09:00 18,4 C 69 % 1018,1 hPa 0,0 l/m 8,7 km/h (2 Bft) S 189 5 min 617 W/m 12,6 C 17,4 C 17,7 km/h (3 Bft)
04.07.2020 08:55 18,3 C 68 % 1018,2 hPa 0,0 l/m 8,2 km/h (2 Bft) S 180 5 min 221 W/m 12,3 C 17,5 C 17,7 km/h (3 Bft)
04.07.2020 08:50 18,4 C 68 % 1018,2 hPa 0,0 l/m 9,2 km/h (2 Bft) S-SO 159 5 min 345 W/m 12,4 C 17,2 C 20,9 km/h (4 Bft)
04.07.2020 08:45 18,2 C 71 % 1018,2 hPa 0,0 l/m 4,2 km/h (1 Bft) S 186 5 min 381 W/m 12,9 C 18,2 C 12,9 km/h (3 Bft)
04.07.2020 08:40 17,7 C 73 % 1018,2 hPa 0,0 l/m 6,9 km/h (2 Bft) SO 144 5 min 501 W/m 12,8 C 17,5 C 14,5 km/h (3 Bft)
04.07.2020 08:35 17,2 C 74 % 1018,2 hPa 0,0 l/m 6,6 km/h (2 Bft) S-SO 156 5 min 466 W/m 12,5 C 17,1 C 17,7 km/h (3 Bft)
04.07.2020 08:30 16,8 C 76 % 1018,2 hPa 0,0 l/m 3,3 km/h (1 Bft) S 169 5 min 425 W/m 12,5 C 16,8 C 14,5 km/h (3 Bft)
04.07.2020 08:25 16,4 C 75 % 1018,2 hPa 0,0 l/m 1,9 km/h (1 Bft) S 178 5 min 424 W/m 12,0 C 16,4 C 9,7 km/h (2 Bft)
04.07.2020 08:20 16,4 C 75 % 1018,2 hPa 0,0 l/m 2,7 km/h (1 Bft) S-SW 208 5 min 207 W/m 12,0 C 16,4 C 11,3 km/h (2 Bft)
04.07.2020 08:15 16,4 C 74 % 1018,1 hPa 0,0 l/m 3,2 km/h (1 Bft) S-SW 207 0 min 69 W/m 11,8 C 16,4 C 8,0 km/h (2 Bft)
04.07.2020 08:10 16,4 C 75 % 1018,1 hPa 0,0 l/m 4,5 km/h (1 Bft) S 186 0 min 65 W/m 12,0 C 16,4 C 9,7 km/h (2 Bft)
04.07.2020 08:05 16,3 C 75 % 1017,9 hPa 0,0 l/m 4,5 km/h (1 Bft) S-SO 167 0 min 98 W/m 11,9 C 16,3 C 12,9 km/h (3 Bft)
04.07.2020 08:00 16,1 C 77 % 1017,9 hPa 0,0 l/m 3,4 km/h (1 Bft) S-SO 164 0 min 135 W/m 12,1 C 16,1 C 9,7 km/h (2 Bft)
04.07.2020 07:55 15,8 C 77 % 1018,0 hPa 0,0 l/m 5,9 km/h (2 Bft) S-SO 157 0 min 134 W/m 11,8 C 15,8 C 16,1 km/h (3 Bft)
04.07.2020 07:50 15,6 C 78 % 1018,0 hPa 0,0 l/m 4,9 km/h (1 Bft) S-SW 204 0 min 123 W/m 11,8 C 15,6 C 14,5 km/h (3 Bft)
04.07.2020 07:45 15,3 C 80 % 1018,0 hPa 0,0 l/m 6,1 km/h (2 Bft) S 184 0 min 104 W/m 11,9 C 15,3 C 14,5 km/h (3 Bft)
04.07.2020 07:40 14,9 C 82 % 1017,9 hPa 0,0 l/m 5,7 km/h (2 Bft) S-SO 159 0 min 93 W/m 11,9 C 14,9 C 14,5 km/h (3 Bft)
04.07.2020 07:35 14,4 C 85 % 1018,0 hPa 0,0 l/m 2,8 km/h (1 Bft) SO 146 0 min 90 W/m 11,9 C 14,4 C 17,7 km/h (3 Bft)
04.07.2020 07:30 13,9 C 88 % 1018,0 hPa 0,0 l/m 0,0 km/h (0 Bft) S 175 0 min 72 W/m 11,9 C 13,9 C 0,0 km/h (0 Bft)
04.07.2020 07:25 13,6 C 88 % 1018,0 hPa 0,0 l/m 0,2 km/h (0 Bft) S 174 0 min 62 W/m 11,6 C 13,6 C 3,2 km/h (1 Bft)
04.07.2020 07:20 13,3 C 90 % 1018,0 hPa 0,0 l/m 0,7 km/h (0 Bft) S 173 0 min 65 W/m 11,7 C 13,3 C 4,8 km/h (1 Bft)
04.07.2020 07:15 13,1 C 91 % 1018,0 hPa 0,0 l/m 0,0 km/h (0 Bft) S 175 0 min 56 W/m 11,7 C 13,1 C 0,0 km/h (0 Bft)
04.07.2020 07:10 12,9 C 91 % 1018,0 hPa 0,0 l/m 0,7 km/h (0 Bft) S 175 0 min 49 W/m 11,5 C 12,9 C 4,8 km/h (1 Bft)
04.07.2020 07:05 12,7 C 92 % 1018,1 hPa 0,0 l/m 0,0 km/h (0 Bft) W 281 0 min 47 W/m 11,4 C 12,7 C 0,0 km/h (0 Bft)
04.07.2020 07:00 12,5 C 93 % 1018,1 hPa 0,0 l/m 0,0 km/h (0 Bft) W 281 0 min 51 W/m 11,4 C 12,5 C 0,0 km/h (0 Bft)
04.07.2020 06:55 12,3 C 93 % 1018,0 hPa 0,0 l/m 0,0 km/h (0 Bft) W 281 0 min 54 W/m 11,2 C 12,3 C 1,6 km/h (1 Bft)
04.07.2020 06:50 12,2 C 93 % 1017,9 hPa 0,0 l/m 0,0 km/h (0 Bft) W 281 0 min 54 W/m 11,1 C 12,2 C 0,0 km/h (0 Bft)
04.07.2020 06:45 12,0 C 93 % 1017,9 hPa 0,0 l/m 0,0 km/h (0 Bft) W 281 0 min 54 W/m 10,9 C 12,0 C 0,0 km/h (0 Bft)
04.07.2020 06:40 11,9 C 93 % 1017,9 hPa 0,0 l/m 0,0 km/h (0 Bft) W 281 0 min 53 W/m 10,8 C 11,9 C 0,0 km/h (0 Bft)
04.07.2020 06:35 11,8 C 93 % 1017,9 hPa 0,0 l/m 0,0 km/h (0 Bft) W 281 0 min 47 W/m 10,7 C 11,8 C 0,0 km/h (0 Bft)
04.07.2020 06:30 11,6 C 93 % 1017,9 hPa 0,0 l/m 0,0 km/h (0 Bft) W 281 0 min 42 W/m 10,5 C 11,6 C 0,0 km/h (0 Bft)
04.07.2020 06:25 11,6 C 93 % 1017,9 hPa 0,0 l/m 0,0 km/h (0 Bft) W 281 0 min 37 W/m 10,5 C 11,6 C 0,0 km/h (0 Bft)
04.07.2020 06:20 11,4 C 93 % 1017,8 hPa 0,0 l/m 0,0 km/h (0 Bft) W 281 0 min 35 W/m 10,3 C 11,4 C 0,0 km/h (0 Bft)
04.07.2020 06:15 11,4 C 93 % 1017,8 hPa 0,0 l/m 0,0 km/h (0 Bft) W 281 0 min 30 W/m 10,3 C 11,4 C 0,0 km/h (0 Bft)
04.07.2020 06:10 11,3 C 93 % 1017,9 hPa 0,0 l/m 0,0 km/h (0 Bft) W 281 0 min 28 W/m 10,2 C 11,3 C 0,0 km/h (0 Bft)
04.07.2020 06:05 11,3 C 93 % 1017,9 hPa 0,0 l/m 0,0 km/h (0 Bft) W 281 0 min 26 W/m 10,2 C 11,3 C 0,0 km/h (0 Bft)
04.07.2020 05:55 11,1 C 93 % 1017,9 hPa 0,0 l/m 0,0 km/h (0 Bft) N 0 0 min 23 W/m 10,0 C 11,1 C 0,0 km/h (0 Bft)
04.07.2020 05:50 11,1 C 93 % 1017,9 hPa 0,0 l/m 0,0 km/h (0 Bft) N 0 0 min 23 W/m 10,0 C 11,1 C 0,0 km/h (0 Bft)
04.07.2020 05:45 11,0 C 93 % 1017,8 hPa 0,0 l/m 0,0 km/h (0 Bft) N 0 0 min 21 W/m 9,9 C 11,0 C 0,0 km/h (0 Bft)
04.07.2020 05:40 10,9 C 93 % 1017,8 hPa 0,0 l/m 0,0 km/h (0 Bft) N 0 0 min 19 W/m 9,8 C 10,9 C 0,0 km/h (0 Bft)
04.07.2020 05:35 10,9 C 92 % 1017,8 hPa 0,0 l/m 0,0 km/h (0 Bft) N 0 0 min 16 W/m 9,7 C 10,9 C 0,0 km/h (0 Bft)
04.07.2020 05:30 10,8 C 92 % 1017,8 hPa 0,0 l/m 0,0 km/h (0 Bft) N 0 0 min 14 W/m 9,6 C 10,8 C 0,0 km/h (0 Bft)
04.07.2020 05:25 10,9 C 92 % 1017,8 hPa 0,0 l/m 0,0 km/h (0 Bft) N 0 0 min 12 W/m 9,7 C 10,9 C 0,0 km/h (0 Bft)
04.07.2020 05:20 10,9 C 92 % 1017,7 hPa 0,0 l/m 0,0 km/h (0 Bft) N 0 0 min 9 W/m 9,7 C 10,9 C 0,0 km/h (0 Bft)
04.07.2020 05:15 11,0 C 92 % 1017,7 hPa 0,0 l/m 0,0 km/h (0 Bft) N 0 0 min 5 W/m 9,8 C 11,0 C 0,0 km/h (0 Bft)
04.07.2020 05:10 11,0 C 92 % 1017,6 hPa 0,0 l/m 0,0 km/h (0 Bft) N 0 0 min 0 W/m 9,8 C 11,0 C 0,0 km/h (0 Bft)
04.07.2020 05:05 11,0 C 92 % 1017,7 hPa 0,0 l/m 0,0 km/h (0 Bft) N 0 0 min 0 W/m 9,8 C 11,0 C 0,0 km/h (0 Bft)
04.07.2020 05:00 11,1 C 92 % 1017,7 hPa 0,0 l/m 0,0 km/h (0 Bft) N 0 0 min 0 W/m 9,8 C 11,1 C 0,0 km/h (0 Bft)
04.07.2020 04:55 11,1 C 92 % 1017,6 hPa 0,0 l/m 0,0 km/h (0 Bft) N 0 0 min 0 W/m 9,8 C 11,1 C 0,0 km/h (0 Bft)
04.07.2020 04:50 11,1 C 92 % 1017,6 hPa 0,0 l/m 0,0 km/h (0 Bft) N 0 0 min 0 W/m 9,8 C 11,1 C 0,0 km/h (0 Bft)
04.07.2020 04:45 11,2 C 92 % 1017,6 hPa 0,0 l/m 0,0 km/h (0 Bft) N 0 0 min 0 W/m 9,9 C 11,2 C 0,0 km/h (0 Bft)
04.07.2020 04:40 11,2 C 92 % 1017,7 hPa 0,0 l/m 0,0 km/h (0 Bft) N 0 0 min 0 W/m 9,9 C 11,2 C 0,0 km/h (0 Bft)
04.07.2020 04:35 11,2 C 92 % 1017,7 hPa 0,0 l/m 0,0 km/h (0 Bft) N 0 0 min 0 W/m 9,9 C 11,2 C 0,0 km/h (0 Bft)
04.07.2020 04:30 11,2 C 92 % 1017,8 hPa 0,0 l/m 0,0 km/h (0 Bft) N 0 0 min 0 W/m 9,9 C 11,2 C 0,0 km/h (0 Bft)
04.07.2020 04:25 11,2 C 91 % 1017,8 hPa 0,0 l/m 0,0 km/h (0 Bft) N 0 0 min 0 W/m 9,8 C 11,2 C 0,0 km/h (0 Bft)
04.07.2020 04:20 11,3 C 92 % 1017,7 hPa 0,0 l/m 0,0 km/h (0 Bft) N 0 0 min 0 W/m 10,0 C 11,3 C 0,0 km/h (0 Bft)
04.07.2020 04:15 11,3 C 92 % 1017,8 hPa 0,0 l/m 0,0 km/h (0 Bft) N 0 0 min 0 W/m 10,0 C 11,3 C 0,0 km/h (0 Bft)
04.07.2020 04:10 11,3 C 92 % 1017,8 hPa 0,0 l/m 0,0 km/h (0 Bft) N 0 0 min 0 W/m 10,0 C 11,3 C 0,0 km/h (0 Bft)
04.07.2020 04:05 11,2 C 92 % 1017,8 hPa 0,0 l/m 0,0 km/h (0 Bft) N 0 0 min 0 W/m 9,9 C 11,2 C 0,0 km/h (0 Bft)
04.07.2020 04:00 11,1 C 91 % 1017,9 hPa 0,0 l/m 0,0 km/h (0 Bft) N 0 0 min 0 W/m 9,7 C 11,1 C 0,0 km/h (0 Bft)
04.07.2020 03:55 11,1 C 91 % 1017,9 hPa 0,0 l/m 0,0 km/h (0 Bft) N 0 0 min 0 W/m 9,7 C 11,1 C 0,0 km/h (0 Bft)
04.07.2020 03:50 11,1 C 91 % 1018,0 hPa 0,0 l/m 0,0 km/h (0 Bft) N 0 0 min 0 W/m 9,7 C 11,1 C 0,0 km/h (0 Bft)
04.07.2020 03:45 11,1 C 91 % 1018,0 hPa 0,0 l/m 0,0 km/h (0 Bft) N 0 0 min 0 W/m 9,7 C 11,1 C 0,0 km/h (0 Bft)
04.07.2020 03:40 11,1 C 90 % 1018,0 hPa 0,0 l/m 0,0 km/h (0 Bft) N 0 0 min 0 W/m 9,5 C 11,1 C 0,0 km/h (0 Bft)
04.07.2020 03:35 11,2 C 90 % 1018,0 hPa 0,0 l/m 0,0 km/h (0 Bft) N 0 0 min 0 W/m 9,6 C 11,2 C 0,0 km/h (0 Bft)
04.07.2020 03:30 11,3 C 90 % 1018,0 hPa 0,0 l/m 0,0 km/h (0 Bft) N 0 0 min 0 W/m 9,7 C 11,3 C 0,0 km/h (0 Bft)
04.07.2020 03:25 11,4 C 89 % 1018,0 hPa 0,0 l/m 0,0 km/h (0 Bft) N 0 0 min 0 W/m 9,7 C 11,4 C 0,0 km/h (0 Bft)
04.07.2020 03:20 11,5 C 89 % 1018,1 hPa 0,0 l/m 0,0 km/h (0 Bft) N 0 0 min 0 W/m 9,8 C 11,5 C 0,0 km/h (0 Bft)
04.07.2020 03:15 11,7 C 90 % 1018,1 hPa 0,0 l/m 0,0 km/h (0 Bft) N 0 0 min 0 W/m 10,1 C 11,7 C 0,0 km/h (0 Bft)
04.07.2020 03:10 11,7 C 90 % 1018,3 hPa 0,0 l/m 0,0 km/h (0 Bft) N 0 0 min 0 W/m 10,1 C 11,7 C 0,0 km/h (0 Bft)
04.07.2020 03:05 11,8 C 89 % 1018,3 hPa 0,0 l/m 0,0 km/h (0 Bft) N 0 0 min 0 W/m 10,0 C 11,8 C 0,0 km/h (0 Bft)
04.07.2020 03:00 11,8 C 90 % 1018,3 hPa 0,0 l/m 0,0 km/h (0 Bft) N 0 0 min 0 W/m 10,2 C 11,8 C 0,0 km/h (0 Bft)
04.07.2020 02:55 11,9 C 90 % 1018,3 hPa 0,0 l/m 0,0 km/h (0 Bft) N 0 0 min 0 W/m 10,3 C 11,9 C 0,0 km/h (0 Bft)
04.07.2020 02:50 11,9 C 89 % 1018,3 hPa 0,0 l/m 0,0 km/h (0 Bft) N 0 0 min 0 W/m 10,1 C 11,9 C 0,0 km/h (0 Bft)
04.07.2020 02:45 12,0 C 89 % 1018,3 hPa 0,0 l/m 0,0 km/h (0 Bft) N 0 0 min 0 W/m 10,2 C 12,0 C 0,0 km/h (0 Bft)
04.07.2020 02:40 12,1 C 89 % 1018,2 hPa 0,0 l/m 0,0 km/h (0 Bft) N 0 0 min 0 W/m 10,3 C 12,1 C 0,0 km/h (0 Bft)
04.07.2020 02:35 12,2 C 89 % 1018,2 hPa 0,0 l/m 0,0 km/h (0 Bft) N 0 0 min 0 W/m 10,4 C 12,2 C 0,0 km/h (0 Bft)
04.07.2020 02:30 12,3 C 89 % 1018,3 hPa 0,0 l/m 0,0 km/h (0 Bft) N 0 0 min 0 W/m 10,5 C 12,3 C 0,0 km/h (0 Bft)
04.07.2020 02:25 12,3 C 89 % 1018,3 hPa 0,0 l/m 0,0 km/h (0 Bft) N 0 0 min 0 W/m 10,5 C 12,3 C 0,0 km/h (0 Bft)
04.07.2020 02:20 12,3 C 89 % 1018,3 hPa 0,0 l/m 0,0 km/h (0 Bft) N 0 0 min 0 W/m 10,5 C 12,3 C 0,0 km/h (0 Bft)
04.07.2020 02:15 12,4 C 89 % 1018,3 hPa 0,0 l/m 0,0 km/h (0 Bft) N 0 0 min 0 W/m 10,6 C 12,4 C 0,0 km/h (0 Bft)
04.07.2020 02:10 12,4 C 88 % 1018,3 hPa 0,0 l/m 0,0 km/h (0 Bft) N 0 0 min 0 W/m 10,5 C 12,4 C 0,0 km/h (0 Bft)
04.07.2020 02:05 12,4 C 88 % 1018,3 hPa 0,0 l/m 0,0 km/h (0 Bft) N 0 0 min 0 W/m 10,5 C 12,4 C 0,0 km/h (0 Bft)
04.07.2020 02:00 12,4 C 88 % 1018,2 hPa 0,0 l/m 0,0 km/h (0 Bft) N 0 0 min 0 W/m 10,5 C 12,4 C 0,0 km/h (0 Bft)
04.07.2020 01:55 12,4 C 88 % 1018,2 hPa 0,0 l/m 0,0 km/h (0 Bft) N 0 0 min 0 W/m 10,5 C 12,4 C 0,0 km/h (0 Bft)
04.07.2020 01:50 12,4 C 88 % 1018,2 hPa 0,0 l/m 0,0 km/h (0 Bft) N 0 0 min 0 W/m 10,5 C 12,4 C 0,0 km/h (0 Bft)
04.07.2020 01:45 12,4 C 87 % 1018,2 hPa 0,0 l/m 0,0 km/h (0 Bft) N 0 0 min 0 W/m 10,3 C 12,4 C 0,0 km/h (0 Bft)
04.07.2020 01:40 12,6 C 86 % 1018,2 hPa 0,0 l/m 0,0 km/h (0 Bft) N 0 0 min 0 W/m 10,3 C 12,6 C 0,0 km/h (0 Bft)
04.07.2020 01:35 12,6 C 85 % 1018,1 hPa 0,0 l/m 0,0 km/h (0 Bft) N 0 0 min 0 W/m 10,1 C 12,6 C 0,0 km/h (0 Bft)
04.07.2020 01:30 12,7 C 85 % 1018,1 hPa 0,0 l/m 0,0 km/h (0 Bft) N 0 0 min 0 W/m 10,2 C 12,7 C 0,0 km/h (0 Bft)
04.07.2020 01:25 12,8 C 85 % 1018,0 hPa 0,0 l/m 0,0 km/h (0 Bft) N 0 0 min 0 W/m 10,3 C 12,8 C 0,0 km/h (0 Bft)
04.07.2020 01:20 12,8 C 85 % 1018,2 hPa 0,0 l/m 0,0 km/h (0 Bft) N 0 0 min 0 W/m 10,3 C 12,8 C 0,0 km/h (0 Bft)
04.07.2020 01:15 12,9 C 85 % 1018,2 hPa 0,0 l/m 0,0 km/h (0 Bft) N 0 0 min 0 W/m 10,4 C 12,9 C 0,0 km/h (0 Bft)
04.07.2020 01:10 12,9 C 85 % 1018,2 hPa 0,0 l/m 0,0 km/h (0 Bft) N 0 0 min 0 W/m 10,4 C 12,9 C 0,0 km/h (0 Bft)
04.07.2020 01:05 13,0 C 85 % 1018,1 hPa 0,0 l/m 0,0 km/h (0 Bft) N 0 0 min 0 W/m 10,5 C 13,0 C 0,0 km/h (0 Bft)
04.07.2020 01:00 13,1 C 84 % 1018,1 hPa 0,0 l/m 0,0 km/h (0 Bft) N 0 0 min 0 W/m 10,5 C 13,1 C 0,0 km/h (0 Bft)
04.07.2020 00:55 13,2 C 84 % 1018,1 hPa 0,0 l/m 0,0 km/h (0 Bft) N 0 0 min 0 W/m 10,6 C 13,2 C 0,0 km/h (0 Bft)
04.07.2020 00:50 13,2 C 84 % 1018,1 hPa 0,0 l/m 0,0 km/h (0 Bft) N 0 0 min 0 W/m 10,6 C 13,2 C 0,0 km/h (0 Bft)
04.07.2020 00:45 13,3 C 83 % 1018,0 hPa 0,0 l/m 0,0 km/h (0 Bft) N 0 0 min 0 W/m 10,5 C 13,3 C 0,0 km/h (0 Bft)
04.07.2020 00:40 13,3 C 83 % 1018,0 hPa 0,0 l/m 0,0 km/h (0 Bft) N 0 0 min 0 W/m 10,5 C 13,3 C 0,0 km/h (0 Bft)
04.07.2020 00:35 13,5 C 82 % 1018,1 hPa 0,0 l/m 0,0 km/h (0 Bft) N 0 0 min 0 W/m 10,5 C 13,5 C 0,0 km/h (0 Bft)
04.07.2020 00:30 13,7 C 82 % 1018,1 hPa 0,0 l/m 0,0 km/h (0 Bft) N 0 0 min 0 W/m 10,7 C 13,7 C 0,0 km/h (0 Bft)
04.07.2020 00:25 13,8 C 81 % 1018,1 hPa 0,0 l/m 0,0 km/h (0 Bft) N 0 0 min 0 W/m 10,6 C 13,8 C 0,0 km/h (0 Bft)
04.07.2020 00:20 13,9 C 81 % 1018,0 hPa 0,0 l/m 0,0 km/h (0 Bft) N 0 0 min 0 W/m 10,7 C 13,9 C 0,0 km/h (0 Bft)
04.07.2020 00:15 13,9 C 81 % 1017,9 hPa 0,0 l/m 0,0 km/h (0 Bft) N 0 0 min 0 W/m 10,7 C 13,9 C 0,0 km/h (0 Bft)
04.07.2020 00:10 14,0 C 81 % 1017,9 hPa 0,0 l/m 0,0 km/h (0 Bft) N 0 0 min 0 W/m 10,8 C 14,0 C 0,0 km/h (0 Bft)
04.07.2020 00:05 14,1 C 81 % 1018,0 hPa 0,0 l/m 0,0 km/h (0 Bft) N 0 0 min 0 W/m 10,9 C 14,1 C 0,0 km/h (0 Bft)
04.07.2020 00:00 14,1 C 81 % 1017,9 hPa 0,0 l/m 0,0 km/h (0 Bft) N 0 0 min 0 W/m 10,9 C 14,1 C 0,0 km/h (0 Bft)
03.07.2020 23:55 14,1 C 82 % 1017,8 hPa 0,0 l/m 0,0 km/h (0 Bft) N 0 0 min 0 W/m 11,1 C 14,1 C 0,0 km/h (0 Bft)
03.07.2020 23:50 14,1 C 82 % 1017,8 hPa 0,0 l/m 0,0 km/h (0 Bft) N 0 0 min 0 W/m 11,1 C 14,1 C 0,0 km/h (0 Bft)
03.07.2020 23:45 14,1 C 82 % 1017,8 hPa 0,0 l/m 0,0 km/h (0 Bft) N 0 0 min 0 W/m 11,1 C 14,1 C 0,0 km/h (0 Bft)
03.07.2020 23:40 14,0 C 83 % 1017,8 hPa 0,0 l/m 0,0 km/h (0 Bft) N 0 0 min 0 W/m 11,2 C 14,0 C 0,0 km/h (0 Bft)
03.07.2020 23:35 14,0 C 83 % 1017,7 hPa 0,0 l/m 0,0 km/h (0 Bft) N 0 0 min 0 W/m 11,2 C 14,0 C 0,0 km/h (0 Bft)
03.07.2020 23:30 14,0 C 83 % 1017,7 hPa 0,0 l/m 0,0 km/h (0 Bft) N 0 0 min 0 W/m 11,2 C 14,0 C 0,0 km/h (0 Bft)
03.07.2020 23:25 14,1 C 83 % 1017,7 hPa 0,0 l/m 0,0 km/h (0 Bft) N 0 0 min 0 W/m 11,3 C 14,1 C 0,0 km/h (0 Bft)
03.07.2020 23:20 14,1 C 84 % 1017,6 hPa 0,0 l/m 0,0 km/h (0 Bft) N 0 0 min 0 W/m 11,4 C 14,1 C 0,0 km/h (0 Bft)
03.07.2020 23:15 14,2 C 84 % 1017,6 hPa 0,0 l/m 0,0 km/h (0 Bft) N 0 0 min 0 W/m 11,5 C 14,2 C 0,0 km/h (0 Bft)
03.07.2020 23:10 14,2 C 84 % 1017,6 hPa 0,0 l/m 0,0 km/h (0 Bft) N 0 0 min 0 W/m 11,5 C 14,2 C 0,0 km/h (0 Bft)
03.07.2020 23:05 14,2 C 85 % 1017,5 hPa 0,0 l/m 0,0 km/h (0 Bft) N 0 0 min 0 W/m 11,7 C 14,2 C 0,0 km/h (0 Bft)
03.07.2020 23:00 14,3 C 84 % 1017,5 hPa 0,0 l/m 0,0 km/h (0 Bft) W 281 0 min 0 W/m 11,6 C 14,3 C 0,0 km/h (0 Bft)
03.07.2020 22:55 14,6 C 83 % 1017,5 hPa 0,0 l/m 0,0 km/h (0 Bft) W 281 0 min 0 W/m 11,7 C 14,6 C 0,0 km/h (0 Bft)
03.07.2020 22:50 14,8 C 82 % 1017,5 hPa 0,0 l/m 0,0 km/h (0 Bft) W 281 0 min 0 W/m 11,8 C 14,8 C 0,0 km/h (0 Bft)
03.07.2020 22:45 15,0 C 81 % 1017,5 hPa 0,0 l/m 0,0 km/h (0 Bft) W 281 0 min 0 W/m 11,8 C 15,0 C 0,0 km/h (0 Bft)
03.07.2020 22:40 15,2 C 80 % 1017,4 hPa 0,0 l/m 0,0 km/h (0 Bft) W 281 0 min 0 W/m 11,8 C 15,2 C 0,0 km/h (0 Bft)
03.07.2020 22:35 15,5 C 79 % 1017,3 hPa 0,0 l/m 0,0 km/h (0 Bft) W 281 0 min 0 W/m 11,9 C 15,5 C 0,0 km/h (0 Bft)
03.07.2020 22:30 15,8 C 78 % 1017,3 hPa 0,0 l/m 0,0 km/h (0 Bft) W 281 0 min 0 W/m 12,0 C 15,8 C 0,0 km/h (0 Bft)
03.07.2020 22:25 16,1 C 77 % 1017,3 hPa 0,0 l/m 0,0 km/h (0 Bft) W 281 0 min 0 W/m 12,1 C 16,1 C 0,0 km/h (0 Bft)
03.07.2020 22:20 16,4 C 76 % 1017,4 hPa 0,0 l/m 0,0 km/h (0 Bft) W 281 0 min 0 W/m 12,2 C 16,4 C 0,0 km/h (0 Bft)
03.07.2020 22:15 16,7 C 76 % 1017,3 hPa 0,0 l/m 0,0 km/h (0 Bft) W 281 0 min 0 W/m 12,4 C 16,7 C 0,0 km/h (0 Bft)
03.07.2020 22:10 17,0 C 76 % 1017,2 hPa 0,0 l/m 0,0 km/h (0 Bft) W 281 0 min 0 W/m 12,7 C 17,0 C 0,0 km/h (0 Bft)
03.07.2020 22:05 17,2 C 74 % 1017,1 hPa 0,0 l/m 0,0 km/h (0 Bft) W 281 0 min 0 W/m 12,5 C 17,2 C 0,0 km/h (0 Bft)
03.07.2020 22:00 17,5 C 74 % 1017,1 hPa 0,0 l/m 0,0 km/h (0 Bft) W 281 0 min 0 W/m 12,8 C 17,5 C 0,0 km/h (0 Bft)
03.07.2020 21:55 17,8 C 73 % 1017,1 hPa 0,0 l/m 0,0 km/h (0 Bft) W 281 0 min 0 W/m 12,9 C 17,8 C 0,0 km/h (0 Bft)
03.07.2020 21:50 18,2 C 72 % 1017,0 hPa 0,0 l/m 0,0 km/h (0 Bft) W 281 0 min 0 W/m 13,1 C 18,2 C 0,0 km/h (0 Bft)
03.07.2020 21:45 18,6 C 71 % 1016,9 hPa 0,0 l/m 0,0 km/h (0 Bft) W 281 0 min 0 W/m 13,2 C 18,6 C 0,0 km/h (0 Bft)
03.07.2020 21:40 19,1 C 68 % 1016,8 hPa 0,0 l/m 0,0 km/h (0 Bft) W 281 0 min 0 W/m 13,1 C 19,1 C 0,0 km/h (0 Bft)
03.07.2020 21:35 19,6 C 67 % 1016,8 hPa 0,0 l/m 0,0 km/h (0 Bft) W 281 0 min 0 W/m 13,3 C 19,6 C 0,0 km/h (0 Bft)
03.07.2020 21:30 19,9 C 66 % 1016,8 hPa 0,0 l/m 0,0 km/h (0 Bft) W 281 0 min 0 W/m 13,4 C 19,9 C 0,0 km/h (0 Bft)
03.07.2020 21:25 20,3 C 66 % 1016,7 hPa 0,0 l/m 0,0 km/h (0 Bft) W 281 0 min 5 W/m 13,7 C 20,3 C 0,0 km/h (0 Bft)
03.07.2020 21:20 20,7 C 64 % 1016,7 hPa 0,0 l/m 0,0 km/h (0 Bft) W 281 0 min 7 W/m 13,6 C 20,7 C 0,0 km/h (0 Bft)
03.07.2020 21:15 20,9 C 62 % 1016,6 hPa 0,0 l/m 0,0 km/h (0 Bft) W 281 0 min 9 W/m 13,3 C 20,9 C 0,0 km/h (0 Bft)
03.07.2020 21:10 21,2 C 60 % 1016,6 hPa 0,0 l/m 0,0 km/h (0 Bft) W 281 0 min 12 W/m 13,1 C 21,2 C 0,0 km/h (0 Bft)
03.07.2020 21:05 21,4 C 59 % 1016,5 hPa 0,0 l/m 0,0 km/h (0 Bft) W 281 0 min 14 W/m 13,0 C 21,4 C 0,0 km/h (0 Bft)
03.07.2020 21:00 21,6 C 58 % 1016,5 hPa 0,0 l/m 0,0 km/h (0 Bft) W 281 0 min 14 W/m 13,0 C 21,6 C 0,0 km/h (0 Bft)
03.07.2020 20:55 21,8 C 57 % 1016,5 hPa 0,0 l/m 0,0 km/h (0 Bft) W 281 0 min 12 W/m 12,9 C 21,8 C 0,0 km/h (0 Bft)
03.07.2020 20:50 22,0 C 56 % 1016,5 hPa 0,0 l/m 0,0 km/h (0 Bft) W 281 0 min 18 W/m 12,8 C 22,0 C 0,0 km/h (0 Bft)
03.07.2020 20:45 22,2 C 54 % 1016,5 hPa 0,0 l/m 0,0 km/h (0 Bft) W 281 0 min 28 W/m 12,4 C 22,2 C 0,0 km/h (0 Bft)
03.07.2020 20:40 22,3 C 53 % 1016,4 hPa 0,0 l/m 0,1 km/h (0 Bft) W 281 0 min 33 W/m 12,2 C 22,3 C 3,2 km/h (1 Bft)
03.07.2020 20:35 22,5 C 52 % 1016,4 hPa 0,0 l/m 0,0 km/h (0 Bft) W 281 0 min 32 W/m 12,1 C 22,5 C 1,6 km/h (1 Bft)
03.07.2020 20:30 22,7 C 51 % 1016,4 hPa 0,0 l/m 0,3 km/h (0 Bft) W 281 0 min 32 W/m 12,0 C 22,7 C 4,8 km/h (1 Bft)
03.07.2020 20:25 22,8 C 51 % 1016,4 hPa 0,0 l/m 0,2 km/h (0 Bft) W 281 0 min 72 W/m 12,1 C 22,8 C 4,8 km/h (1 Bft)
03.07.2020 20:20 23,0 C 50 % 1016,4 hPa 0,0 l/m 0,0 km/h (0 Bft) W 281 0 min 72 W/m 12,0 C 23,0 C 0,0 km/h (0 Bft)
03.07.2020 20:15 23,2 C 50 % 1016,3 hPa 0,0 l/m 0,3 km/h (0 Bft) W 281 0 min 35 W/m 12,2 C 23,2 C 6,4 km/h (2 Bft)
03.07.2020 20:10 23,3 C 50 % 1016,4 hPa 0,0 l/m 0,0 km/h (0 Bft) W 281 0 min 118 W/m 12,3 C 23,3 C 1,6 km/h (1 Bft)
03.07.2020 20:05 23,3 C 50 % 1016,4 hPa 0,0 l/m 0,0 km/h (0 Bft) W 280 0 min 54 W/m 12,3 C 23,3 C 0,0 km/h (0 Bft)
03.07.2020 20:00 23,3 C 49 % 1016,4 hPa 0,0 l/m 0,1 km/h (0 Bft) W 281 5 min 162 W/m 12,0 C 23,3 C 4,8 km/h (1 Bft)
03.07.2020 19:55 23,5 C 48 % 1016,4 hPa 0,0 l/m 0,5 km/h (0 Bft) W 280 0 min 62 W/m 11,8 C 23,5 C 4,8 km/h (1 Bft)
03.07.2020 19:50 23,8 C 46 % 1016,4 hPa 0,0 l/m 0,8 km/h (0 Bft) W 281 0 min 76 W/m 11,5 C 23,8 C 6,4 km/h (2 Bft)
03.07.2020 19:45 24,0 C 46 % 1016,3 hPa 0,0 l/m 1,1 km/h (1 Bft) W 279 0 min 93 W/m 11,7 C 24,0 C 8,0 km/h (2 Bft)
03.07.2020 19:40 23,8 C 46 % 1016,3 hPa 0,0 l/m 1,2 km/h (1 Bft) W-NW 287 5 min 262 W/m 11,5 C 23,8 C 8,0 km/h (2 Bft)
03.07.2020 19:35 23,5 C 47 % 1016,3 hPa 0,0 l/m 1,1 km/h (1 Bft) W-SW 238 5 min 295 W/m 11,5 C 23,5 C 8,0 km/h (2 Bft)
03.07.2020 19:30 23,1 C 49 % 1016,3 hPa 0,0 l/m 0,3 km/h (0 Bft) S-SW 210 5 min 323 W/m 11,8 C 23,1 C 4,8 km/h (1 Bft)
03.07.2020 19:25 23,0 C 48 % 1016,3 hPa 0,0 l/m 0,5 km/h (0 Bft) S-SW 211 0 min 141 W/m 11,4 C 23,0 C 4,8 km/h (1 Bft)
03.07.2020 19:20 22,9 C 51 % 1016,3 hPa 0,0 l/m 0,1 km/h (0 Bft) S-SW 211 0 min 116 W/m 12,2 C 22,9 C 4,8 km/h (1 Bft)
03.07.2020 19:15 22,8 C 50 % 1016,3 hPa 0,0 l/m 0,1 km/h (0 Bft) S-SW 210 0 min 116 W/m 11,8 C 22,8 C 3,2 km/h (1 Bft)
03.07.2020 19:10 22,9 C 50 % 1016,3 hPa 0,0 l/m 0,1 km/h (0 Bft) S-SW 211 0 min 109 W/m 11,9 C 22,9 C 3,2 km/h (1 Bft)
03.07.2020 19:05 22,9 C 49 % 1016,3 hPa 0,0 l/m 0,2 km/h (0 Bft) S-SW 211 0 min 98 W/m 11,6 C 22,9 C 4,8 km/h (1 Bft)
03.07.2020 19:00 22,9 C 50 % 1016,3 hPa 0,0 l/m 0,3 km/h (0 Bft) S-SW 210 0 min 102 W/m 11,9 C 22,9 C 6,4 km/h (2 Bft)
_ Min-Zeit 05:30 16:45 18:10 - 20:05 - - - - 03:40 05:30 20:05
Minimum _ 10,8 C 40 % 1014,8 hPa - 0,0 km/h (0 Bft) - - - - 9,5 C 10,8 C 0,0 km/h (0 Bft)
_ Max-Zeit 16:45 05:40 02:05 19:00 11:45 - - 19:30 14:25 21:25 16:50 12:20
Maximum _ 25,9 C 93 % 1018,3 hPa 0,0 l/m 13,6 km/h
SW (3 Bft)
- - 5 min 1174 W/m 13,7 C 25,2 C 33,8 km/h
S-SO (5 Bft)
Durchschnitt _ 18,7 C 66 % 1017,1 hPa #0,0 l/m 3,6 km/h (1 Bft) S - #10:00 h 384 W/m 11,5 C 18,4 C 9,4 km/h (2 Bft)